Zurück zum Katalog

CASSIOPE

AktivWissenschaftPO
NORAD 39265·PAYLOAD·🇨🇦 Canada

Gestartet Sep 29, 2013 von Vandenberg Space Force Base

Loading…

Nächste Überflüge (nächste 24 Stunden)

TLE

AktuellSource: Space-Track

Epoche: Sep 14, 2026, 14:24 UTC

1 39265U 13055A   26257.60013265  .00037444 -60618-6  37229-3 0  9990
2 39265  80.9126 317.6249 0269748 119.5391 243.3033 15.31533019681329

Verfolge CASSIOPE in Echtzeit mit AllMySat

Download on the App Store